Location: Edinburgh
(55.9500°N, 3.1600°W)
Time: 07:00:27
(UTC+01:00)

Vanguard 3 - Visible Passes

Search period start: 17 October 2017 00:00
Search period end: 27 October 2017 00:00
Orbit: 510 x 3263 km, 33.3° (Epoch: 16 October)

Date Brightness Start Highest point End Pass type
(mag) Time Alt. Az. Time Alt. Az. Time Alt. Az.
18 Oct 10.3 07:14:38 10° SSW 07:16:37 11° S 07:18:24 10° SSE visible
19 Oct 10.5 05:59:57 10° S 06:03:17 12° S 06:06:09 10° SSE visible
20 Oct 10.7 04:46:43 10° S 04:49:41 11° SSE 04:52:20 10° SSE visible
20 Oct 10.3 06:56:15 10° SSW 07:00:49 14° S 07:04:30 10° SSE visible
21 Oct 10.4 05:41:17 10° SSW 05:47:22 15° S 05:52:08 10° SE visible
22 Oct 10.6 04:28:12 11° S 04:33:37 15° SSE 04:38:53 10° SE visible
22 Oct 10.2 06:38:29 10° SW 06:44:56 17° S 06:49:49 10° SSE visible
23 Oct 10.8 03:18:41 12° SSE 03:19:39 13° SSE 03:24:14 10° SE visible
23 Oct 10.3 05:23:17 10° SSW 05:31:21 19° S 05:37:27 10° SE visible
24 Oct 10.5 04:13:43 16° S 04:17:26 18° SSE 04:24:21 10° SE visible
24 Oct 10.2 06:20:51 10° SW 06:28:57 19° S 06:34:50 10° SSE visible
25 Oct 10.8 03:04:06 16° SSE 03:04:06 16° SSE 03:10:14 10° SE visible
25 Oct 10.3 05:08:41 15° SSW 05:15:13 22° S 05:22:27 10° SE visible
25 Oct 10.2 07:19:38 10° SW 07:26:17 17° SSW 07:31:17 10° SSE visible
26 Oct 10.5 03:59:02 21° S 04:01:08 22° SSE 04:09:22 10° SE visible
26 Oct 10.2 06:03:37 11° SW 06:12:50 22° S 06:19:39 10° SE visible
